7 * 24
多渠道服务支持
STARLINK-36895(NORAD编号68038)是SpaceX星链星座的第二代低轨通信卫星,属于星链网络扩容的组成部分。作为近地轨道卫星,它运行在约550公里轨道,依托星链星座架构为全球提供高速宽带互联网服务。 该卫星继承了第二代星链的技术优化,配备激光星间链路实现卫星直接通信,减少对地面基站依赖,采用亮度抑制设计降低天文观测干扰。作为星链大规模组网的节点,它支撑了星链低延迟(约25毫秒)的通信优势,可支持流媒体、在线服务等应用,进一步拓展了星链的全球覆盖能力。
美国
(US)
| 数据来源 | 国际轨道数据 |
| 星历时间: | 2026-07-27T21:56:23+0800 12小时前 查看轨道信息 |
| 半长轴: | 6843.725km |
| 偏心率: | 0.0002217 |
| 轨道倾角: | 97.286° |
| 近地点辐角 | 80.937° |
| 升交点赤经 | 156.728° |
| 平近点角 | 279.212° |
| 近地点: | 464.07km |
| 远地点: | 467.106km |
| 周期: | 93.907分钟 |
| 每日圈数: | 15.334302 |